This is the latest recevied weather packets stored in our database for station/object N0ZMJ-3. If no packets are shown the sender has not sent any weather packets the latest 10 day(s).
| Time | Temp. | Humidity | Pressure | Rain* | Wind** | Luminosity | Snow |
|---|---|---|---|---|---|---|---|
| 1777845082 | 21.11° C | 35% | 1006.3 hPa | 0 mm | - | - | - |
| 1777844654 | 21.11° C | 33% | 1006.4 hPa | 0 mm | - | - | - |
| 1777844245 | 21.11° C | 35% | 1006.5 hPa | 0 mm | - | - | - |
| 1777844054 | 21.11° C | 36% | 1006.6 hPa | 0 mm | - | - | - |
| 1777843824 | 21.11° C | 36% | 1006.6 hPa | 0 mm | - | - | - |
| 1777843454 | 21.11° C | 37% | 1006.8 hPa | 0 mm | - | - | - |
| 1777843401 | 21.11° C | 37% | 1006.8 hPa | 0 mm | - | - | - |
| 1777842982 | 21.11° C | 40% | 1006.8 hPa | 0 mm | - | - | - |
| 1777842854 | 21.11° C | 38% | 1007 hPa | 0 mm | - | - | - |
| 1777842564 | 21.11° C | 38% | 1007.1 hPa | 0 mm | - | - | - |
| 1777842256 | 21.11° C | 37% | 1007.1 hPa | 0 mm | - | - | - |
| 1777842145 | 21.11° C | 37% | 1007.1 hPa | 0 mm | - | - | - |
| 1777841724 | 21.11° C | 36% | 1007.1 hPa | 0 mm | - | - | - |
| 1777841656 | 21.11° C | 35% | 1007.1 hPa | 0 mm | - | - | - |
| 1777841303 | 20.56° C | 39% | 1007.2 hPa | 0 mm | - | - | - |
| 1777841056 | 20.56° C | 37% | 1007.3 hPa | 0 mm | - | - | - |
| 1777840884 | 20.56° C | 37% | 1007.3 hPa | 0 mm | - | - | - |
| 1777840455 | 20.56° C | 38% | 1007.6 hPa | 0 mm | - | - | - |
| 1777840043 | 20.56° C | 38% | 1007.6 hPa | 0 mm | - | - | - |
| 1777839855 | 20° C | 37% | 1007.6 hPa | 0 mm | - | - | - |
| 1777839622 | 20° C | 37% | 1007.6 hPa | 0 mm | - | - | - |
| 1777839255 | 20° C | 35% | 1008 hPa | 0 mm | - | - | - |
| 1777839203 | 20° C | 35% | 1008 hPa | 0 mm | - | - | - |
| 1777838782 | 20° C | 38% | 1008 hPa | 0 mm | - | - | - |
| 1777838655 | 20.56° C | 37% | 1008.1 hPa | 0 mm | - | - | - |
* Rain latest hour (hover to see other rain measurements)
** Current wind speed in m/s (hover to see current wind gust speed)